Flag for U.S.A. Weather past 2 weeks in Wake Island, Wake Island, U.S.A.

Now
79 °F

Scattered clouds.


Feels Like: 82 °F
Forecast: 77 / 83 °F
Wind: 17 mph from Northeast

Location: Wake Island Airfld

Current Time: Apr 19, 2015 at 8:25:13 AM

Latest Report: Apr 19, 2015 at 7:58 AM


Visibility: N/A

Pressure: 30.00 "Hg

Humidity: 78%

Dew point: 71 °F

Location of Wake IslandLocation

Historic Weather in Wake Island — Graph

°F

Wake Island temperature yesterday

Maximum temperature yesterday: 84 °F (at 11:58 AM)
Minimum temperature yesterday: 76 °F (at 2:58 AM)
Average temperature yesterday: 80 °F

Past Weeks' High & Low Weather Summary

 TemperatureHumidityPressure
High85 °F (Apr 17, 1:58 PM)100% (Apr 8, 3:04 PM)30.15 "Hg (Apr 8, 3:04 PM)
Low71 °F (Apr 13, 5:58 AM)53% (Apr 5, 1:58 PM)29.78 "Hg (Apr 5, 4:58 PM)
Average78 °F76%29.97 "Hg
* Reported Apr 4 6:58 AM — Apr 19 6:58 AM, Wake Island, Weather by CustomWeather, © 2015

Note: Actual official high and low records may vary slightly from our data, if they occured in-between our weather recording intervals... More about our weather records

Advertising

Wake Island weather history for previous 24 hours

 ConditionsComfort  
Time TempWeatherWind HumidityBarometerVisibility
6:58 AM
Sun, Apr 19
78 °FPassing clouds.20 mph81%29.98 "HgN/A
5:58 AM77 °FPassing clouds.20 mph80%29.97 "HgN/A
4:58 AM77 °FPassing clouds.18 mph82%29.97 "HgN/A
3:58 AM77 °FPartly cloudy.16 mph84%29.98 "HgN/A
2:58 AM77 °FPartly cloudy.16 mph82%29.98 "HgN/A
1:58 AM78 °FPassing clouds.20 mph80%30.01 "HgN/A
12:58 AM78 °FPartly cloudy.18 mph78%30.02 "HgN/A
11:58 PM
Sat, Apr 18
78 °FPassing clouds.18 mph78%30.04 "HgN/A
10:58 PM78 °FPassing clouds.20 mph78%30.05 "HgN/A
9:58 PM78 °FPassing clouds.20 mph78%30.04 "HgN/A
8:58 PM79 °FPassing clouds.20 mph77%30.03 "HgN/A
7:58 PM79 °FBroken clouds.18 mph76%30.01 "HgN/A
7:03 PM79 °FMostly cloudy.20 mph74%29.97 "HgN/A
6:58 PM80 °FCloudy.17 mph74%29.99 "HgN/A
5:58 PM80 °FBroken clouds.18 mph71%29.96 "HgN/A
4:58 PM83 °FScattered clouds.21 mph66%29.95 "HgN/A
3:58 PM84 °FScattered clouds.22 mph63%29.95 "HgN/A
2:58 PM84 °FPartly sunny.21 mph62%29.96 "HgN/A
1:58 PM84 °FSunny.20 mph62%29.98 "HgN/A
12:58 PM83 °FScattered clouds.23 mph63%30.00 "HgN/A
11:58 AM84 °FSunny.23 mph66%30.00 "HgN/A
10:58 AM83 °FPassing clouds.22 mph68%30.02 "HgN/A
9:58 AM82 °FPassing clouds.23 mph71%30.01 "HgN/A
8:58 AM79 °FBroken clouds.21 mph82%30.01 "HgN/A
Weather by CustomWeather, © 2015

See weather overviewHow to use our weather pages